Time,TemperatureF,DewpointF,PressureIn,WindDirection,WindDirectionDegrees,WindSpeedMPH,WindSpeedGustMPH,Humidity,HourlyPrecipIn,Conditions,Clouds,dailyrainin,SoftwareType,DateUTC
2013-05-02 00:03:00,60.0,45.0,-100.00,NE,54,7.0,14.0,57,0.00,,,0.02,,2013-05-02 04:03:00,
2013-05-02 00:12:00,60.0,45.0,-100.00,NE,54,7.0,14.0,57,0.00,,,0.02,,2013-05-02 04:12:00,
2013-05-02 00:23:00,60.0,44.0,-100.00,NE,49,9.0,16.0,57,0.00,,,0.02,,2013-05-02 04:23:00,
2013-05-02 00:33:00,60.0,44.0,-100.00,NE,49,9.0,16.0,57,0.00,,,0.02,,2013-05-02 04:33:00,
2013-05-02 00:43:00,59.0,44.0,-100.00,ENE,64,6.0,10.0,58,0.00,,,0.02,,2013-05-02 04:43:00,
2013-05-02 00:52:00,59.0,44.0,-100.00,ENE,64,6.0,10.0,58,0.00,,,0.02,,2013-05-02 04:52:00,
2013-05-02 01:02:00,59.0,44.0,-100.00,ENE,58,6.0,16.0,57,0.00,,,0.02,,2013-05-02 05:02:00,
2013-05-02 01:12:00,59.0,44.0,-100.00,ENE,58,6.0,16.0,57,0.00,,,0.02,,2013-05-02 05:12:00,
2013-05-02 01:22:00,59.0,44.0,-100.00,NE,48,6.0,13.0,56,0.00,,,0.02,,2013-05-02 05:22:00,
2013-05-02 01:32:00,59.0,44.0,-100.00,NE,48,6.0,13.0,56,0.00,,,0.02,,2013-05-02 05:32:00,
2013-05-02 01:42:00,59.0,43.0,-100.00,NE,47,4.0,9.0,55,0.00,,,0.02,,2013-05-02 05:42:00,
2013-05-02 01:52:00,59.0,43.0,-100.00,NE,47,4.0,9.0,55,0.00,,,0.02,,2013-05-02 05:52:00,
2013-05-02 02:01:00,58.0,41.0,-100.00,NNE,32,6.0,12.0,53,0.00,,,0.02,,2013-05-02 06:01:00,
2013-05-02 02:12:00,58.0,41.0,-100.00,NNE,32,6.0,12.0,53,0.00,,,0.02,,2013-05-02 06:12:00,
2013-05-02 02:22:00,58.0,40.0,-100.00,NE,44,8.0,14.0,50,0.00,,,0.02,,2013-05-02 06:22:00,
2013-05-02 02:32:00,58.0,40.0,-100.00,NE,44,8.0,14.0,50,0.00,,,0.02,,2013-05-02 06:32:00,
2013-05-02 02:42:00,58.0,38.0,-100.00,NE,41,7.0,14.0,47,0.00,,,0.02,,2013-05-02 06:42:00,
2013-05-02 02:52:00,58.0,38.0,-100.00,NE,41,7.0,14.0,47,0.00,,,0.02,,2013-05-02 06:52:00,
2013-05-02 03:02:00,58.0,36.0,-100.00,NE,40,8.0,15.0,44,0.00,,,0.02,,2013-05-02 07:02:00,
2013-05-02 03:11:00,58.0,36.0,-100.00,NE,40,8.0,15.0,44,0.00,,,0.02,,2013-05-02 07:11:00,
2013-05-02 03:21:00,58.0,36.0,-100.00,NE,41,8.0,15.0,42,0.00,,,0.02,,2013-05-02 07:21:00,
2013-05-02 03:32:00,58.0,36.0,-100.00,NE,41,8.0,15.0,42,0.00,,,0.02,,2013-05-02 07:32:00,
2013-05-02 03:42:00,58.0,36.0,-100.00,NNE,31,9.0,18.0,42,0.00,,,0.02,,2013-05-02 07:42:00,
2013-05-02 03:52:00,58.0,36.0,-100.00,NNE,31,9.0,18.0,42,0.00,,,0.02,,2013-05-02 07:52:00,
2013-05-02 04:02:00,58.0,35.0,-100.00,NE,41,7.0,11.0,41,0.00,,,0.02,,2013-05-02 08:02:00,
2013-05-02 04:11:00,58.0,35.0,-100.00,NE,41,7.0,11.0,41,0.00,,,0.02,,2013-05-02 08:11:00,
2013-05-02 04:22:00,58.0,34.0,-100.00,NNE,31,9.0,16.0,39,0.00,,,0.02,,2013-05-02 08:22:00,
2013-05-02 04:32:00,58.0,34.0,-100.00,NNE,31,9.0,16.0,39,0.00,,,0.02,,2013-05-02 08:32:00,
2013-05-02 04:42:00,58.0,34.0,-100.00,ENE,64,4.0,9.0,41,0.00,,,0.02,,2013-05-02 08:42:00,
2013-05-02 04:52:00,58.0,34.0,-100.00,ENE,64,4.0,9.0,41,0.00,,,0.02,,2013-05-02 08:52:00,
2013-05-02 05:02:00,57.0,38.0,-100.00,East,90,1.0,4.0,50,0.00,,,0.02,,2013-05-02 09:02:00,
2013-05-02 05:12:00,57.0,38.0,-100.00,East,90,1.0,4.0,50,0.00,,,0.02,,2013-05-02 09:12:00,
2013-05-02 05:21:00,54.0,38.0,-100.00,NW,318,0.0,3.0,54,0.00,,,0.02,,2013-05-02 09:21:00,
2013-05-02 05:33:00,54.0,38.0,-100.00,NW,318,0.0,3.0,54,0.00,,,0.02,,2013-05-02 09:33:00,
2013-05-02 05:42:00,54.0,38.0,-100.00,WSW,240,1.0,2.0,55,0.00,,,0.02,,2013-05-02 09:42:00,
2013-05-02 05:52:00,54.0,38.0,-100.00,WSW,240,1.0,2.0,55,0.00,,,0.02,,2013-05-02 09:52:00,
2013-05-02 06:03:00,55.0,39.0,-100.00,NW,319,1.0,2.0,54,0.00,,,0.01,,2013-05-02 10:03:00,
2013-05-02 06:12:00,55.0,39.0,-100.00,NW,319,1.0,2.0,54,0.00,,,0.01,,2013-05-02 10:12:00,
2013-05-02 06:23:00,55.0,39.0,-100.00,North,352,1.0,4.0,55,0.00,,,0.01,,2013-05-02 10:23:00,
2013-05-02 06:33:00,55.0,39.0,-100.00,North,352,1.0,4.0,55,0.00,,,0.01,,2013-05-02 10:33:00,
2013-05-02 06:42:00,55.0,41.0,-100.00,NW,322,1.0,4.0,58,0.00,,,0.01,,2013-05-02 10:42:00,
2013-05-02 06:53:00,55.0,41.0,-100.00,NW,322,1.0,4.0,58,0.00,,,0.01,,2013-05-02 10:53:00,
2013-05-02 07:02:00,56.0,40.0,-100.00,ENE,61,1.0,4.0,55,0.00,,,0.01,,2013-05-02 11:02:00,
2013-05-02 07:12:00,56.0,40.0,-100.00,ENE,61,1.0,4.0,55,0.00,,,0.01,,2013-05-02 11:12:00,
2013-05-02 07:22:00,56.0,40.0,-100.00,NE,45,3.0,5.0,54,0.00,,,0.01,,2013-05-02 11:22:00,
2013-05-02 07:32:00,56.0,40.0,-100.00,NE,45,3.0,5.0,54,0.00,,,0.01,,2013-05-02 11:32:00,
2013-05-02 07:42:00,57.0,40.0,-100.00,NE,42,3.0,6.0,54,0.00,,,0.01,,2013-05-02 11:42:00,
2013-05-02 07:52:00,57.0,40.0,-100.00,NE,42,3.0,6.0,54,0.00,,,0.01,,2013-05-02 11:52:00,
2013-05-02 08:01:00,57.0,41.0,-100.00,NE,38,4.0,9.0,54,0.00,,,0.01,,2013-05-02 12:01:00,
2013-05-02 08:12:00,57.0,41.0,-100.00,NE,38,4.0,9.0,54,0.00,,,0.01,,2013-05-02 12:12:00,
2013-05-02 08:22:00,57.0,41.0,-100.00,NE,40,4.0,8.0,55,0.00,,,0.00,,2013-05-02 12:22:00,
2013-05-02 08:32:00,57.0,41.0,-100.00,NE,40,4.0,8.0,55,0.00,,,0.00,,2013-05-02 12:32:00,
2013-05-02 08:42:00,59.0,42.0,-100.00,NE,52,4.0,6.0,53,0.00,,,0.00,,2013-05-02 12:42:00,
2013-05-02 08:52:00,59.0,42.0,-100.00,NE,52,4.0,6.0,53,0.00,,,0.00,,2013-05-02 12:52:00,
2013-05-02 09:01:00,60.0,41.0,-100.00,NE,37,6.0,11.0,48,0.00,,,0.00,,2013-05-02 13:01:00,
2013-05-02 09:11:00,60.0,41.0,-100.00,NE,37,6.0,11.0,48,0.00,,,0.00,,2013-05-02 13:11:00,
2013-05-02 09:22:00,61.0,41.0,-100.00,NE,38,7.0,12.0,47,0.00,,,0.00,,2013-05-02 13:22:00,
2013-05-02 09:32:00,61.0,41.0,-100.00,NE,38,7.0,12.0,47,0.00,,,0.00,,2013-05-02 13:32:00,
2013-05-02 09:42:00,61.0,40.0,-100.00,NE,54,7.0,13.0,45,0.00,,,0.00,,2013-05-02 13:42:00,
2013-05-02 09:52:00,61.0,40.0,-100.00,NE,54,7.0,13.0,45,0.00,,,0.00,,2013-05-02 13:52:00,
2013-05-02 10:02:00,62.0,41.0,-100.00,NE,48,7.0,15.0,45,0.00,,,0.00,,2013-05-02 14:02:00,
2013-05-02 10:11:00,62.0,41.0,-100.00,NE,48,7.0,15.0,45,0.00,,,0.00,,2013-05-02 14:11:00,
2013-05-02 10:22:00,62.0,40.0,-100.00,NE,44,7.0,11.0,45,0.00,,,0.00,,2013-05-02 14:22:00,
2013-05-02 10:32:00,62.0,40.0,-100.00,NE,44,7.0,11.0,45,0.00,,,0.00,,2013-05-02 14:32:00,
2013-05-02 10:43:00,63.0,41.0,-100.00,NNE,27,6.0,12.0,45,0.00,,,0.00,,2013-05-02 14:43:00,
2013-05-02 10:52:00,63.0,41.0,-100.00,NNE,27,6.0,12.0,45,0.00,,,0.00,,2013-05-02 14:52:00,
2013-05-02 11:02:00,64.0,42.0,-100.00,NE,48,5.0,10.0,43,0.00,,,0.00,,2013-05-02 15:02:00,
2013-05-02 11:12:00,64.0,42.0,-100.00,NE,48,5.0,10.0,43,0.00,,,0.00,,2013-05-02 15:12:00,
2013-05-02 11:22:00,65.0,40.0,-100.00,NE,34,5.0,10.0,41,0.00,,,0.00,,2013-05-02 15:22:00,
2013-05-02 11:33:00,65.0,40.0,-100.00,NE,34,5.0,10.0,41,0.00,,,0.00,,2013-05-02 15:33:00,
2013-05-02 11:43:00,66.0,38.0,-100.00,NE,35,6.0,12.0,36,0.00,,,0.00,,2013-05-02 15:43:00,
2013-05-02 12:03:00,66.0,38.0,-100.00,NE,35,6.0,12.0,36,0.00,,,0.00,,2013-05-02 16:03:00,
2013-05-02 12:13:00,69.0,40.0,-100.00,SE,126,3.0,8.0,34,0.00,,,0.00,,2013-05-02 16:13:00,
2013-05-02 12:23:00,69.0,40.0,-100.00,SE,126,3.0,8.0,34,0.00,,,0.00,,2013-05-02 16:23:00,
2013-05-02 12:32:00,69.0,40.0,-100.00,SE,126,3.0,8.0,34,0.00,,,0.00,,2013-05-02 16:32:00,
2013-05-02 12:43:00,69.0,40.0,-100.00,SE,126,3.0,8.0,34,0.00,,,0.00,,2013-05-02 16:43:00,
2013-05-02 13:02:00,69.0,41.0,-100.00,East,83,4.0,9.0,36,0.00,,,0.00,,2013-05-02 17:02:00,
2013-05-02 13:12:00,69.0,41.0,-100.00,East,83,4.0,9.0,36,0.00,,,0.00,,2013-05-02 17:12:00,
2013-05-02 13:22:00,69.0,38.0,-100.00,NE,55,4.0,6.0,33,0.00,,,0.00,,2013-05-02 17:22:00,
2013-05-02 13:32:00,69.0,38.0,-100.00,NE,55,4.0,6.0,33,0.00,,,0.00,,2013-05-02 17:32:00,
2013-05-02 13:42:00,70.0,42.0,-100.00,ESE,113,3.0,5.0,36,0.00,,,0.00,,2013-05-02 17:42:00,
2013-05-02 13:52:00,70.0,42.0,-100.00,ESE,113,3.0,5.0,36,0.00,,,0.00,,2013-05-02 17:52:00,
2013-05-02 14:01:00,69.0,39.0,-100.00,NE,56,4.0,8.0,33,0.00,,,0.00,,2013-05-02 18:01:00,
2013-05-02 14:12:00,69.0,39.0,-100.00,NE,56,4.0,8.0,33,0.00,,,0.00,,2013-05-02 18:12:00,
2013-05-02 14:22:00,72.0,41.0,-100.00,SE,127,3.0,6.0,33,0.00,,,0.00,,2013-05-02 18:22:00,
2013-05-02 14:32:00,72.0,41.0,-100.00,SE,127,3.0,6.0,33,0.00,,,0.00,,2013-05-02 18:32:00,
2013-05-02 14:42:00,70.0,38.0,-100.00,NNE,30,4.0,10.0,31,0.00,,,0.00,,2013-05-02 18:42:00,
2013-05-02 14:52:00,70.0,38.0,-100.00,NNE,30,4.0,10.0,31,0.00,,,0.00,,2013-05-02 18:52:00,
2013-05-02 15:01:00,71.0,39.0,-100.00,North,4,4.0,9.0,31,0.00,,,0.00,,2013-05-02 19:01:00,
2013-05-02 15:11:00,71.0,39.0,-100.00,North,4,4.0,9.0,31,0.00,,,0.00,,2013-05-02 19:11:00,
2013-05-02 15:22:00,73.0,42.0,-100.00,NNE,20,4.0,9.0,33,0.00,,,0.00,,2013-05-02 19:22:00,
2013-05-02 15:32:00,73.0,42.0,-100.00,NNE,20,4.0,9.0,33,0.00,,,0.00,,2013-05-02 19:32:00,
2013-05-02 15:42:00,71.0,42.0,-100.00,NE,45,3.0,8.0,34,0.00,,,0.00,,2013-05-02 19:42:00,
2013-05-02 15:52:00,71.0,42.0,-100.00,NE,45,3.0,8.0,34,0.00,,,0.00,,2013-05-02 19:52:00,
2013-05-02 16:02:00,72.0,41.0,-100.00,SSE,148,3.0,7.0,32,0.00,,,0.00,,2013-05-02 20:02:00,
2013-05-02 16:11:00,72.0,41.0,-100.00,SSE,148,3.0,7.0,32,0.00,,,0.00,,2013-05-02 20:11:00,
2013-05-02 16:22:00,72.0,41.0,-100.00,SSE,158,3.0,9.0,33,0.00,,,0.00,,2013-05-02 20:22:00,
2013-05-02 16:32:00,72.0,41.0,-100.00,SSE,158,3.0,9.0,33,0.00,,,0.00,,2013-05-02 20:32:00,
2013-05-02 16:42:00,73.0,44.0,-100.00,SSE,152,3.0,6.0,35,0.00,,,0.00,,2013-05-02 20:42:00,
2013-05-02 16:52:00,73.0,44.0,-100.00,SSE,152,3.0,6.0,35,0.00,,,0.00,,2013-05-02 20:52:00,
2013-05-02 17:01:00,73.0,43.0,-100.00,SE,127,5.0,11.0,35,0.00,,,0.00,,2013-05-02 21:01:00,
2013-05-02 17:12:00,73.0,43.0,-100.00,SE,127,5.0,11.0,35,0.00,,,0.00,,2013-05-02 21:12:00,
2013-05-02 17:21:00,72.0,42.0,-100.00,SE,130,5.0,13.0,33,0.00,,,0.00,,2013-05-02 21:21:00,
2013-05-02 17:33:00,72.0,42.0,-100.00,SE,130,5.0,13.0,33,0.00,,,0.00,,2013-05-02 21:33:00,
2013-05-02 17:42:00,72.0,42.0,-100.00,SE,130,4.0,9.0,33,0.00,,,0.00,,2013-05-02 21:42:00,
2013-05-02 17:53:00,72.0,42.0,-100.00,SE,130,4.0,9.0,33,0.00,,,0.00,,2013-05-02 21:53:00,
2013-05-02 18:03:00,72.0,44.0,-100.00,SE,140,4.0,9.0,36,0.00,,,0.00,,2013-05-02 22:03:00,
2013-05-02 18:12:00,72.0,44.0,-100.00,SE,140,4.0,9.0,36,0.00,,,0.00,,2013-05-02 22:12:00,
2013-05-02 18:22:00,72.0,43.0,-100.00,ESE,102,3.0,9.0,36,0.00,,,0.00,,2013-05-02 22:22:00,
2013-05-02 18:32:00,72.0,43.0,-100.00,ESE,102,3.0,9.0,36,0.00,,,0.00,,2013-05-02 22:32:00,
2013-05-02 18:42:00,70.0,44.0,-100.00,NNE,18,6.0,13.0,39,0.00,,,0.00,,2013-05-02 22:42:00,
2013-05-02 18:53:00,70.0,44.0,-100.00,NNE,18,6.0,13.0,39,0.00,,,0.00,,2013-05-02 22:53:00,
2013-05-02 19:02:00,69.0,43.0,-100.00,NNE,25,5.0,11.0,39,0.00,,,0.00,,2013-05-02 23:02:00,
2013-05-02 19:12:00,69.0,43.0,-100.00,NNE,25,5.0,11.0,39,0.00,,,0.00,,2013-05-02 23:12:00,
2013-05-02 19:22:00,69.0,45.0,-100.00,NE,54,4.0,8.0,43,0.00,,,0.00,,2013-05-02 23:22:00,
2013-05-02 19:32:00,69.0,45.0,-100.00,NE,54,4.0,8.0,43,0.00,,,0.00,,2013-05-02 23:32:00,
2013-05-02 19:42:00,67.0,46.0,-100.00,NE,40,4.0,7.0,46,0.00,,,0.00,,2013-05-02 23:42:00,
2013-05-02 19:52:00,67.0,46.0,-100.00,NE,40,4.0,7.0,46,0.00,,,0.00,,2013-05-02 23:52:00,
2013-05-02 20:01:00,66.0,46.0,-100.00,NE,37,3.0,7.0,49,0.00,,,0.00,,2013-05-03 00:01:00,
2013-05-02 20:11:00,66.0,46.0,-100.00,NE,37,3.0,7.0,49,0.00,,,0.00,,2013-05-03 00:11:00,
2013-05-02 20:22:00,65.0,46.0,-100.00,NNE,24,6.0,11.0,50,0.00,,,0.00,,2013-05-03 00:22:00,
2013-05-02 20:32:00,65.0,46.0,-100.00,NNE,24,6.0,11.0,50,0.00,,,0.00,,2013-05-03 00:32:00,
2013-05-02 20:42:00,65.0,46.0,-100.00,NNE,24,6.0,11.0,50,0.00,,,0.00,,2013-05-03 00:42:00,
2013-05-02 21:01:00,63.0,45.0,-100.00,NNE,28,4.0,7.0,53,0.00,,,0.00,,2013-05-03 01:01:00,
2013-05-02 21:11:00,63.0,45.0,-100.00,NNE,28,4.0,7.0,53,0.00,,,0.00,,2013-05-03 01:11:00,
2013-05-02 21:21:00,63.0,45.0,-100.00,NNE,28,4.0,7.0,53,0.00,,,0.00,,2013-05-03 01:21:00,
2013-05-02 21:32:00,60.0,45.0,-100.00,NNE,14,2.0,6.0,58,0.00,,,0.00,,2013-05-03 01:32:00,
2013-05-02 21:42:00,59.0,45.0,-100.00,NNE,13,2.0,6.0,60,0.00,,,0.00,,2013-05-03 01:42:00,
2013-05-02 21:52:00,59.0,45.0,-100.00,NNE,13,2.0,6.0,60,0.00,,,0.00,,2013-05-03 01:52:00,
2013-05-02 22:02:00,58.0,46.0,-100.00,North,3,2.0,4.0,64,0.00,,,0.00,,2013-05-03 02:02:00,
2013-05-02 22:11:00,58.0,46.0,-100.00,North,3,2.0,4.0,64,0.00,,,0.00,,2013-05-03 02:11:00,
2013-05-02 22:22:00,58.0,46.0,-100.00,NNE,17,3.0,6.0,65,0.00,,,0.00,,2013-05-03 02:22:00,
2013-05-02 22:32:00,58.0,46.0,-100.00,NNE,17,3.0,6.0,65,0.00,,,0.00,,2013-05-03 02:32:00,
2013-05-02 22:42:00,58.0,44.0,-100.00,NNE,18,4.0,7.0,60,0.00,,,0.00,,2013-05-03 02:42:00,
2013-05-02 22:52:00,58.0,44.0,-100.00,NNE,18,4.0,7.0,60,0.00,,,0.00,,2013-05-03 02:52:00,
2013-05-02 23:01:00,59.0,44.0,-100.00,NNE,23,4.0,8.0,57,0.00,,,0.00,,2013-05-03 03:01:00,
2013-05-02 23:11:00,59.0,44.0,-100.00,NNE,23,4.0,8.0,57,0.00,,,0.00,,2013-05-03 03:11:00,
2013-05-02 23:21:00,57.0,45.0,-100.00,NE,51,2.0,6.0,65,0.00,,,0.00,,2013-05-03 03:21:00,
2013-05-02 23:33:00,57.0,45.0,-100.00,NE,51,2.0,6.0,65,0.00,,,0.00,,2013-05-03 03:33:00,
2013-05-02 23:43:00,55.0,45.0,-100.00,North,360,2.0,4.0,69,0.00,,,0.00,,2013-05-03 03:43:00,
2013-05-02 23:53:00,55.0,45.0,-100.00,North,360,2.0,4.0,69,0.00,,,0.00,,2013-05-03 03:53:00,